Year,Month,Day,Hour,Minute,Value (Times are PST for temperature in C)
2014,05,15,00,00,15.20
2014,05,15,00,01,15.20
2014,05,15,00,02,15.20
2014,05,15,00,03,15.20
2014,05,15,00,04,15.20
2014,05,15,00,05,15.10
2014,05,15,00,06,15.10
2014,05,15,00,07,15.10
2014,05,15,00,08,15.10
2014,05,15,00,09,15.10
2014,05,15,00,10,15.10
2014,05,15,00,11,15.00
2014,05,15,00,12,15.00
2014,05,15,00,13,15.00
2014,05,15,00,14,14.90
2014,05,15,00,15,14.90
2014,05,15,00,16,14.80
2014,05,15,00,17,14.80
2014,05,15,00,18,14.80
2014,05,15,00,19,14.70
2014,05,15,00,20,14.70
2014,05,15,00,21,14.70
2014,05,15,00,22,14.60
2014,05,15,00,23,14.60
2014,05,15,00,24,14.60
2014,05,15,00,25,14.60
2014,05,15,00,26,14.60
2014,05,15,00,27,14.60
2014,05,15,00,28,14.50
2014,05,15,00,29,14.50
2014,05,15,00,30,14.50
2014,05,15,00,31,14.50
2014,05,15,00,32,14.40
2014,05,15,00,33,14.40
2014,05,15,00,34,14.40
2014,05,15,00,35,14.40
2014,05,15,00,36,14.40
2014,05,15,00,37,14.40
2014,05,15,00,38,14.40
2014,05,15,00,39,14.40
2014,05,15,00,40,14.40
2014,05,15,00,41,14.50
2014,05,15,00,42,14.50
2014,05,15,00,43,14.50
2014,05,15,00,44,14.60
2014,05,15,00,45,14.60
2014,05,15,00,46,14.60
2014,05,15,00,47,14.70
2014,05,15,00,48,14.70
2014,05,15,00,49,14.70
2014,05,15,00,50,14.70
2014,05,15,00,51,14.80
2014,05,15,00,52,14.80
2014,05,15,00,53,14.80
2014,05,15,00,54,14.80
2014,05,15,00,55,14.80
2014,05,15,00,56,14.80
2014,05,15,00,57,14.80
2014,05,15,00,58,14.80
2014,05,15,00,59,14.80
2014,05,15,01,00,14.80
2014,05,15,01,01,14.80
2014,05,15,01,02,14.80
2014,05,15,01,03,14.80
2014,05,15,01,04,14.90
2014,05,15,01,05,14.90
2014,05,15,01,06,14.90
2014,05,15,01,07,14.90
2014,05,15,01,08,14.90
2014,05,15,01,09,14.90
2014,05,15,01,10,14.90
2014,05,15,01,11,14.90
2014,05,15,01,12,14.90
2014,05,15,01,13,14.90
2014,05,15,01,14,14.90
2014,05,15,01,15,14.90
2014,05,15,01,16,14.90
2014,05,15,01,17,14.80
2014,05,15,01,18,14.80
2014,05,15,01,19,14.80
2014,05,15,01,20,14.80
2014,05,15,01,21,14.80
2014,05,15,01,22,14.80
2014,05,15,01,23,14.70
2014,05,15,01,24,14.70
2014,05,15,01,25,14.70
2014,05,15,01,26,14.70
2014,05,15,01,27,14.70
2014,05,15,01,28,14.70
2014,05,15,01,29,14.70
2014,05,15,01,30,14.80
2014,05,15,01,31,14.80
2014,05,15,01,32,14.80
2014,05,15,01,33,14.80
2014,05,15,01,34,14.80
2014,05,15,01,35,14.70
2014,05,15,01,36,14.70
2014,05,15,01,37,14.70
2014,05,15,01,38,14.70
2014,05,15,01,39,14.70
2014,05,15,01,40,14.70
2014,05,15,01,41,14.70
2014,05,15,01,42,14.70
2014,05,15,01,43,14.70
2014,05,15,01,44,14.70
2014,05,15,01,45,14.70
2014,05,15,01,46,14.80
2014,05,15,01,47,14.80
2014,05,15,01,48,14.90
2014,05,15,01,49,15.00
2014,05,15,01,50,15.00
2014,05,15,01,51,15.10
2014,05,15,01,52,15.10
2014,05,15,01,53,15.20
2014,05,15,01,54,15.30
2014,05,15,01,55,15.30
2014,05,15,01,56,15.40
2014,05,15,01,57,15.40
2014,05,15,01,58,15.50
2014,05,15,01,59,15.50
2014,05,15,02,00,15.60
2014,05,15,02,01,15.60
2014,05,15,02,02,15.60
2014,05,15,02,03,15.60
2014,05,15,02,04,15.60
2014,05,15,02,05,15.60
2014,05,15,02,06,15.70
2014,05,15,02,07,15.70
2014,05,15,02,08,15.70
2014,05,15,02,09,15.70
2014,05,15,02,10,15.60
2014,05,15,02,11,15.60
2014,05,15,02,12,15.60
2014,05,15,02,13,15.60
2014,05,15,02,14,15.60
2014,05,15,02,15,15.50
2014,05,15,02,16,15.50
2014,05,15,02,17,15.50
2014,05,15,02,18,15.50
2014,05,15,02,19,15.40
2014,05,15,02,20,15.40
2014,05,15,02,21,15.40
2014,05,15,02,22,15.40
2014,05,15,02,23,15.30
2014,05,15,02,24,15.30
2014,05,15,02,25,15.30
2014,05,15,02,26,15.30
2014,05,15,02,27,15.20
2014,05,15,02,28,15.20
2014,05,15,02,29,15.10
2014,05,15,02,30,15.10
2014,05,15,02,31,15.10
2014,05,15,02,32,15.00
2014,05,15,02,33,15.00
2014,05,15,02,34,14.90
2014,05,15,02,35,14.90
2014,05,15,02,36,14.90
2014,05,15,02,37,14.90
2014,05,15,02,38,14.80
2014,05,15,02,39,14.80
2014,05,15,02,40,14.80
2014,05,15,02,41,14.70
2014,05,15,02,42,14.70
2014,05,15,02,43,14.70
2014,05,15,02,44,14.70
2014,05,15,02,45,14.70
2014,05,15,02,46,14.70
2014,05,15,02,47,14.60
2014,05,15,02,48,14.60
2014,05,15,02,49,14.60
2014,05,15,02,50,14.60
2014,05,15,02,51,14.60
2014,05,15,02,52,14.70
2014,05,15,02,53,14.70
2014,05,15,02,54,14.70
2014,05,15,02,55,14.70
2014,05,15,02,56,14.70
2014,05,15,02,57,14.70
2014,05,15,02,58,14.70
2014,05,15,02,59,14.70
2014,05,15,03,00,14.70
2014,05,15,03,01,14.60
2014,05,15,03,02,14.50
2014,05,15,03,03,14.50
2014,05,15,03,04,14.50
2014,05,15,03,05,14.40
2014,05,15,03,06,14.40
2014,05,15,03,07,14.40
2014,05,15,03,08,14.40
2014,05,15,03,09,14.40
2014,05,15,03,10,14.40
2014,05,15,03,11,14.30
2014,05,15,03,12,14.30
2014,05,15,03,13,14.30
2014,05,15,03,14,14.30
2014,05,15,03,15,14.20
2014,05,15,03,16,14.20
2014,05,15,03,17,14.20
2014,05,15,03,18,14.20
2014,05,15,03,19,14.20
2014,05,15,03,20,14.20
2014,05,15,03,21,14.10
2014,05,15,03,22,14.10
2014,05,15,03,23,14.10
2014,05,15,03,24,14.10
2014,05,15,03,25,14.10
2014,05,15,03,26,14.10
2014,05,15,03,27,14.00
2014,05,15,03,28,14.00
2014,05,15,03,29,13.90
2014,05,15,03,30,13.90
2014,05,15,03,31,13.90
2014,05,15,03,32,13.90
2014,05,15,03,33,13.90
2014,05,15,03,34,13.80
2014,05,15,03,35,13.80
2014,05,15,03,36,13.80
2014,05,15,03,37,13.80
2014,05,15,03,38,13.80
2014,05,15,03,39,13.80
2014,05,15,03,40,13.70
2014,05,15,03,41,13.70
2014,05,15,03,42,13.70
2014,05,15,03,43,13.70
2014,05,15,03,44,13.60
2014,05,15,03,45,13.60
2014,05,15,03,46,13.60
2014,05,15,03,47,13.60
2014,05,15,03,48,13.60
2014,05,15,03,49,13.60
2014,05,15,03,50,13.60
2014,05,15,03,51,13.60
2014,05,15,03,52,13.70
2014,05,15,03,53,13.70
2014,05,15,03,54,13.70
2014,05,15,03,55,13.70
2014,05,15,03,56,13.70
2014,05,15,03,57,13.80
2014,05,15,03,58,13.80
2014,05,15,03,59,13.80
2014,05,15,04,00,13.80
2014,05,15,04,01,13.80
2014,05,15,04,02,13.80
2014,05,15,04,03,13.90
2014,05,15,04,04,13.90
2014,05,15,04,05,13.90
2014,05,15,04,06,13.90
2014,05,15,04,07,13.90
2014,05,15,04,08,14.00
2014,05,15,04,09,14.00
2014,05,15,04,10,14.10
2014,05,15,04,11,14.10
2014,05,15,04,12,14.10
2014,05,15,04,13,14.10
2014,05,15,04,14,14.20
2014,05,15,04,15,14.20
2014,05,15,04,16,14.20
2014,05,15,04,17,14.30
2014,05,15,04,18,14.30
2014,05,15,04,19,14.30
2014,05,15,04,20,14.40
2014,05,15,04,21,14.40
2014,05,15,04,22,14.40
2014,05,15,04,23,14.50
2014,05,15,04,24,14.50
2014,05,15,04,25,14.60
2014,05,15,04,26,14.60
2014,05,15,04,27,14.60
2014,05,15,04,28,14.70
2014,05,15,04,29,14.70
2014,05,15,04,30,14.80
2014,05,15,04,31,14.80
2014,05,15,04,32,14.80
2014,05,15,04,33,14.90
2014,05,15,04,34,14.90
2014,05,15,04,35,14.90
2014,05,15,04,36,14.90
2014,05,15,04,37,14.90
2014,05,15,04,38,14.90
2014,05,15,04,39,14.90
2014,05,15,04,40,14.80
2014,05,15,04,41,14.80
2014,05,15,04,42,14.70
2014,05,15,04,43,14.70
2014,05,15,04,44,14.60
2014,05,15,04,45,14.50
2014,05,15,04,46,14.50
2014,05,15,04,47,14.40
2014,05,15,04,48,14.30
2014,05,15,04,49,14.20
2014,05,15,04,50,14.20
2014,05,15,04,51,14.20
2014,05,15,04,52,14.10
2014,05,15,04,53,14.10
2014,05,15,04,54,14.00
2014,05,15,04,55,14.00
2014,05,15,04,56,14.00
2014,05,15,04,57,14.00
2014,05,15,04,58,14.00
2014,05,15,04,59,13.90
2014,05,15,05,00,13.90
2014,05,15,05,01,13.90
2014,05,15,05,02,13.90
2014,05,15,05,03,13.90
2014,05,15,05,04,13.90
2014,05,15,05,05,13.90
2014,05,15,05,06,13.90
2014,05,15,05,07,14.00
2014,05,15,05,08,14.00
2014,05,15,05,09,14.10
2014,05,15,05,10,14.20
2014,05,15,05,11,14.30
2014,05,15,05,12,14.40
2014,05,15,05,13,14.50
2014,05,15,05,14,14.60
2014,05,15,05,15,14.60
2014,05,15,05,16,14.60
2014,05,15,05,17,14.60
2014,05,15,05,18,14.90
2014,05,15,05,19,15.00
2014,05,15,05,20,15.10
2014,05,15,05,21,15.10
2014,05,15,05,22,15.20
2014,05,15,05,23,15.20
2014,05,15,05,24,15.20
2014,05,15,05,25,15.20
2014,05,15,05,26,15.20
2014,05,15,05,27,15.20
2014,05,15,05,28,15.20
2014,05,15,05,29,15.20
2014,05,15,05,30,15.30
2014,05,15,05,31,15.30
2014,05,15,05,32,15.30
2014,05,15,05,33,15.30
2014,05,15,05,34,15.40
2014,05,15,05,35,15.40
2014,05,15,05,36,15.40
2014,05,15,05,37,15.40
2014,05,15,05,38,15.40
2014,05,15,05,39,15.40
2014,05,15,05,40,15.40
2014,05,15,05,41,15.40
2014,05,15,05,42,15.40
2014,05,15,05,43,15.40
2014,05,15,05,44,15.50
2014,05,15,05,45,15.50
2014,05,15,05,46,15.50
2014,05,15,05,47,15.50
2014,05,15,05,48,15.50
2014,05,15,05,49,15.50
2014,05,15,05,50,15.50
2014,05,15,05,51,15.60
2014,05,15,05,52,15.60
2014,05,15,05,53,15.60
2014,05,15,05,54,15.50
2014,05,15,05,55,15.50
2014,05,15,05,56,15.50
2014,05,15,05,57,15.50
2014,05,15,05,58,15.50
2014,05,15,05,59,15.50
2014,05,15,06,00,15.60
2014,05,15,06,01,15.50
2014,05,15,06,02,15.50
2014,05,15,06,03,15.50
2014,05,15,06,04,15.50
2014,05,15,06,05,15.50
2014,05,15,06,06,15.50
2014,05,15,06,07,15.50
2014,05,15,06,08,15.50
2014,05,15,06,09,15.60
2014,05,15,06,10,15.60
2014,05,15,06,11,15.50
2014,05,15,06,12,15.50
2014,05,15,06,13,15.50
2014,05,15,06,14,15.40
2014,05,15,06,15,15.40
2014,05,15,06,16,15.40
2014,05,15,06,17,15.40
2014,05,15,06,18,15.40
2014,05,15,06,19,15.40
2014,05,15,06,20,15.40
2014,05,15,06,21,15.40
2014,05,15,06,22,15.40
2014,05,15,06,23,15.40
2014,05,15,06,24,15.40
2014,05,15,06,25,15.40
2014,05,15,06,26,15.40
2014,05,15,06,27,15.40
2014,05,15,06,28,15.40
2014,05,15,06,29,15.40
2014,05,15,06,30,15.50
2014,05,15,06,31,15.50
2014,05,15,06,32,15.50
2014,05,15,06,33,15.60
2014,05,15,06,34,15.60
2014,05,15,06,35,15.70
2014,05,15,06,36,15.80
2014,05,15,06,37,15.90
2014,05,15,06,38,15.90
2014,05,15,06,39,16.00
2014,05,15,06,40,16.00
2014,05,15,06,41,16.10
2014,05,15,06,42,16.10
2014,05,15,06,43,16.20
2014,05,15,06,44,16.20
2014,05,15,06,45,16.20
2014,05,15,06,46,16.30
2014,05,15,06,47,16.30
2014,05,15,06,48,16.30
2014,05,15,06,49,16.30
2014,05,15,06,50,16.40
2014,05,15,06,51,16.40
2014,05,15,06,52,16.40
2014,05,15,06,53,16.40
2014,05,15,06,54,16.40
2014,05,15,06,55,16.40
2014,05,15,06,56,16.40
2014,05,15,06,57,16.40
2014,05,15,06,58,16.40
2014,05,15,06,59,16.40
2014,05,15,07,00,16.40
2014,05,15,07,01,16.40
2014,05,15,07,02,16.40
2014,05,15,07,03,16.40
2014,05,15,07,04,16.40
2014,05,15,07,05,16.50
2014,05,15,07,06,16.50
2014,05,15,07,07,16.50
2014,05,15,07,08,16.50
2014,05,15,07,09,16.50
2014,05,15,07,10,16.50
2014,05,15,07,11,16.50
2014,05,15,07,12,16.60
2014,05,15,07,13,16.60
2014,05,15,07,14,16.60
2014,05,15,07,15,16.60
2014,05,15,07,16,16.60
2014,05,15,07,17,16.60
2014,05,15,07,18,16.60
2014,05,15,07,19,16.70
2014,05,15,07,20,16.70
2014,05,15,07,21,16.70
2014,05,15,07,22,16.70
2014,05,15,07,23,16.80
2014,05,15,07,24,16.80
2014,05,15,07,25,16.80
2014,05,15,07,26,16.80
2014,05,15,07,27,16.80
2014,05,15,07,28,16.90
2014,05,15,07,29,16.90
2014,05,15,07,30,16.90
2014,05,15,07,31,17.00
2014,05,15,07,32,17.00
2014,05,15,07,33,17.10
2014,05,15,07,34,17.10
2014,05,15,07,35,17.10
2014,05,15,07,36,17.10
2014,05,15,07,37,17.20
2014,05,15,07,38,17.20
2014,05,15,07,39,17.20
2014,05,15,07,40,17.20
2014,05,15,07,41,17.30
2014,05,15,07,42,17.30
2014,05,15,07,43,17.30
2014,05,15,07,44,17.30
2014,05,15,07,45,17.40
2014,05,15,07,46,17.40
2014,05,15,07,47,17.40
2014,05,15,07,48,17.50
2014,05,15,07,49,17.50
2014,05,15,07,50,17.50
2014,05,15,07,51,17.60
2014,05,15,07,52,17.60
2014,05,15,07,53,17.60
2014,05,15,07,54,17.60
2014,05,15,07,55,17.70
2014,05,15,07,56,17.70
2014,05,15,07,57,17.70
2014,05,15,07,58,17.80
2014,05,15,07,59,17.80
2014,05,15,08,00,17.80
2014,05,15,08,01,17.80
2014,05,15,08,02,17.80
2014,05,15,08,03,17.90
2014,05,15,08,04,17.90
2014,05,15,08,05,17.90
2014,05,15,08,06,17.90
2014,05,15,08,07,17.90
2014,05,15,08,08,17.90
2014,05,15,08,09,17.90
2014,05,15,08,10,18.00
2014,05,15,08,11,18.00
2014,05,15,08,12,18.10
2014,05,15,08,13,18.10
2014,05,15,08,14,18.10
2014,05,15,08,15,18.20
2014,05,15,08,16,18.20
2014,05,15,08,17,18.30
2014,05,15,08,18,18.40
2014,05,15,08,19,18.40
2014,05,15,08,20,18.50
2014,05,15,08,21,18.50
2014,05,15,08,22,18.60
2014,05,15,08,23,18.60
2014,05,15,08,24,18.70
2014,05,15,08,25,18.80
2014,05,15,08,26,18.90
2014,05,15,08,27,19.00
2014,05,15,08,28,19.20
2014,05,15,08,29,19.30
2014,05,15,08,30,19.40
2014,05,15,08,31,19.50
2014,05,15,08,32,19.40
2014,05,15,08,33,19.30
2014,05,15,08,34,19.20
2014,05,15,08,35,19.00
2014,05,15,08,36,18.80
2014,05,15,08,37,18.70
2014,05,15,08,38,18.50
2014,05,15,08,39,18.40
2014,05,15,08,40,18.30
2014,05,15,08,41,18.20
2014,05,15,08,42,18.10
2014,05,15,08,43,18.10
2014,05,15,08,44,18.00
2014,05,15,08,45,18.00
2014,05,15,08,46,17.90
2014,05,15,08,47,17.90
2014,05,15,08,48,17.90
2014,05,15,08,49,18.00
2014,05,15,08,50,18.00
2014,05,15,08,51,18.00
2014,05,15,08,52,18.00
2014,05,15,08,53,18.00
2014,05,15,08,54,18.10
2014,05,15,08,55,18.10
2014,05,15,08,56,18.10
2014,05,15,08,57,18.10
2014,05,15,08,58,18.20
2014,05,15,08,59,18.20
2014,05,15,09,00,18.20
2014,05,15,09,01,18.20
2014,05,15,09,02,18.20
2014,05,15,09,03,18.30
2014,05,15,09,04,18.30
2014,05,15,09,05,18.30
2014,05,15,09,06,18.20
2014,05,15,09,07,18.10
2014,05,15,09,08,18.10
2014,05,15,09,09,18.00
2014,05,15,09,10,18.00
2014,05,15,09,11,17.90
2014,05,15,09,12,17.90
2014,05,15,09,13,17.90
2014,05,15,09,14,17.90
2014,05,15,09,15,17.90
2014,05,15,09,16,18.00
2014,05,15,09,17,18.00
2014,05,15,09,18,18.00
2014,05,15,09,19,18.10
2014,05,15,09,20,18.10
2014,05,15,09,21,18.20
2014,05,15,09,22,18.30
2014,05,15,09,23,18.50
2014,05,15,09,24,18.60
2014,05,15,09,25,18.70
2014,05,15,09,26,18.80
2014,05,15,09,27,19.00
2014,05,15,09,28,19.10
2014,05,15,09,29,19.20
2014,05,15,09,30,19.30
2014,05,15,09,31,19.40
2014,05,15,09,32,19.50
2014,05,15,09,33,19.60
2014,05,15,09,34,19.60
2014,05,15,09,35,19.70
2014,05,15,09,36,19.80
2014,05,15,09,37,19.80
2014,05,15,09,38,19.90
2014,05,15,09,39,19.90
2014,05,15,09,40,19.90
2014,05,15,09,41,19.90
2014,05,15,09,42,19.90
2014,05,15,09,43,19.80
2014,05,15,09,44,19.80
2014,05,15,09,45,19.70
2014,05,15,09,46,19.60
2014,05,15,09,47,19.50
2014,05,15,09,48,19.50
2014,05,15,09,49,19.40
2014,05,15,09,50,19.40
2014,05,15,09,51,19.40
2014,05,15,09,52,19.40
2014,05,15,09,53,19.50
2014,05,15,09,54,19.60
2014,05,15,09,55,19.60
2014,05,15,09,56,19.70
2014,05,15,09,57,19.70
2014,05,15,09,58,19.80
2014,05,15,09,59,19.90
2014,05,15,10,00,19.90
2014,05,15,10,01,20.00
2014,05,15,10,02,20.00
2014,05,15,10,03,20.10
2014,05,15,10,04,20.10
2014,05,15,10,05,20.20
2014,05,15,10,06,20.20
2014,05,15,10,07,20.30
2014,05,15,10,08,20.30
2014,05,15,10,09,20.30
2014,05,15,10,10,20.30
2014,05,15,10,11,20.30
2014,05,15,10,12,20.30
2014,05,15,10,13,20.20
2014,05,15,10,14,20.20
2014,05,15,10,15,20.10
2014,05,15,10,16,20.10
2014,05,15,10,17,20.10
2014,05,15,10,18,20.10
2014,05,15,10,19,20.00
2014,05,15,10,20,20.00
2014,05,15,10,21,19.90
2014,05,15,10,22,19.90
2014,05,15,10,23,19.90
2014,05,15,10,24,19.90
2014,05,15,10,25,19.90
2014,05,15,10,26,19.90
2014,05,15,10,27,20.00
2014,05,15,10,28,20.00
2014,05,15,10,29,20.00
2014,05,15,10,30,20.00
2014,05,15,10,31,20.10
2014,05,15,10,32,20.10
2014,05,15,10,33,20.20
2014,05,15,10,34,20.20
2014,05,15,10,35,20.30
2014,05,15,10,36,20.30
2014,05,15,10,37,20.40
2014,05,15,10,38,20.40
2014,05,15,10,39,20.50
2014,05,15,10,40,20.60
2014,05,15,10,41,20.60
2014,05,15,10,42,20.70
2014,05,15,10,43,20.80
2014,05,15,10,44,20.90
2014,05,15,10,45,21.00
2014,05,15,10,46,21.10
2014,05,15,10,47,21.20
2014,05,15,10,48,21.30
2014,05,15,10,49,21.40
2014,05,15,10,50,21.40
2014,05,15,10,51,21.50
2014,05,15,10,52,21.50
2014,05,15,10,53,21.60
2014,05,15,10,54,21.60
2014,05,15,10,55,21.70
2014,05,15,10,56,21.70
2014,05,15,10,57,21.70
2014,05,15,10,58,21.60
2014,05,15,10,59,21.50
2014,05,15,11,00,21.40
2014,05,15,11,01,21.40
2014,05,15,11,02,21.40
2014,05,15,11,03,21.30
2014,05,15,11,04,21.30
2014,05,15,11,05,21.30
2014,05,15,11,06,21.30
2014,05,15,11,07,21.30
2014,05,15,11,08,21.30
2014,05,15,11,09,21.30
2014,05,15,11,10,21.30
2014,05,15,11,11,21.30
2014,05,15,11,12,21.30
2014,05,15,11,13,21.30
2014,05,15,11,14,21.30
2014,05,15,11,15,21.30
2014,05,15,11,16,21.30
2014,05,15,11,17,21.20
2014,05,15,11,18,21.10
2014,05,15,11,19,21.10
2014,05,15,11,20,21.10
2014,05,15,11,21,21.10
2014,05,15,11,22,21.10
2014,05,15,11,23,21.20
2014,05,15,11,24,21.20
2014,05,15,11,25,21.30
2014,05,15,11,26,21.40
2014,05,15,11,27,21.50
2014,05,15,11,28,21.50
2014,05,15,11,29,21.60
2014,05,15,11,30,21.60
2014,05,15,11,31,21.70
2014,05,15,11,32,21.70
2014,05,15,11,33,21.80
2014,05,15,11,34,21.90
2014,05,15,11,35,21.90
2014,05,15,11,36,22.00
2014,05,15,11,37,22.10
2014,05,15,11,38,22.20
2014,05,15,11,39,22.20
2014,05,15,11,40,22.30
2014,05,15,11,41,22.30
2014,05,15,11,42,22.40
2014,05,15,11,43,22.50
2014,05,15,11,44,22.50
2014,05,15,11,45,22.60
2014,05,15,11,46,22.70
2014,05,15,11,47,22.80
2014,05,15,11,48,22.80
2014,05,15,11,49,23.00
2014,05,15,11,50,23.10
2014,05,15,11,51,23.10
2014,05,15,11,52,23.20
2014,05,15,11,53,23.30
2014,05,15,11,54,23.30
2014,05,15,11,55,23.30
2014,05,15,11,56,23.20
2014,05,15,11,57,23.10
2014,05,15,11,58,23.10
2014,05,15,11,59,23.00
2014,05,15,12,00,23.00
2014,05,15,12,01,22.90
2014,05,15,12,02,22.90
2014,05,15,12,03,22.90
2014,05,15,12,04,22.90
2014,05,15,12,05,23.00
2014,05,15,12,06,23.10
2014,05,15,12,07,23.10
2014,05,15,12,08,23.20
2014,05,15,12,09,23.20
2014,05,15,12,10,23.30
2014,05,15,12,11,23.20
2014,05,15,12,12,23.20
2014,05,15,12,13,23.20
2014,05,15,12,14,23.20
2014,05,15,12,15,23.20
2014,05,15,12,16,23.30
2014,05,15,12,17,23.30
2014,05,15,12,18,23.30
2014,05,15,12,19,23.30
2014,05,15,12,20,23.30
2014,05,15,12,21,23.20
2014,05,15,12,22,23.20
2014,05,15,12,23,23.10
2014,05,15,12,24,23.10
2014,05,15,12,25,23.10
2014,05,15,12,26,23.20
2014,05,15,12,27,23.20
2014,05,15,12,28,23.20
2014,05,15,12,29,23.20
2014,05,15,12,30,23.20
2014,05,15,12,31,23.20
2014,05,15,12,32,23.20
2014,05,15,12,33,23.20
2014,05,15,12,34,23.20
2014,05,15,12,35,23.30
2014,05,15,12,36,23.30
2014,05,15,12,37,23.30
2014,05,15,12,38,23.30
2014,05,15,12,39,23.20
2014,05,15,12,40,23.10
2014,05,15,12,41,23.10
2014,05,15,12,42,23.00
2014,05,15,12,43,22.90
2014,05,15,12,44,22.90
2014,05,15,12,45,22.90
2014,05,15,12,46,23.00
2014,05,15,12,47,23.00
2014,05,15,12,48,23.10
2014,05,15,12,49,23.20
2014,05,15,12,50,23.20
2014,05,15,12,51,23.20
2014,05,15,12,52,23.30
2014,05,15,12,53,23.30
2014,05,15,12,54,23.30
2014,05,15,12,55,23.40
2014,05,15,12,56,23.40
2014,05,15,12,57,23.40
2014,05,15,12,58,23.50
2014,05,15,12,59,23.50
2014,05,15,13,00,23.50
2014,05,15,13,01,23.50
2014,05,15,13,02,23.50
2014,05,15,13,03,23.40
2014,05,15,13,04,23.30
2014,05,15,13,05,23.20
2014,05,15,13,06,23.10
2014,05,15,13,07,22.90
2014,05,15,13,08,22.90
2014,05,15,13,09,22.80
2014,05,15,13,10,22.80
2014,05,15,13,11,22.80
2014,05,15,13,12,22.80
2014,05,15,13,13,22.80
2014,05,15,13,14,22.90
2014,05,15,13,15,22.90
2014,05,15,13,16,22.90
2014,05,15,13,17,23.00
2014,05,15,13,18,23.00
2014,05,15,13,19,23.00
2014,05,15,13,20,23.00
2014,05,15,13,21,23.10
2014,05,15,13,22,23.10
2014,05,15,13,23,23.10
2014,05,15,13,24,23.10
2014,05,15,13,25,23.10
2014,05,15,13,26,23.10
2014,05,15,13,27,23.10
2014,05,15,13,28,23.10
2014,05,15,13,29,23.10
2014,05,15,13,30,23.10
2014,05,15,13,31,23.10
2014,05,15,13,32,23.10
2014,05,15,13,33,23.10
2014,05,15,13,34,23.10
2014,05,15,13,35,23.10
2014,05,15,13,36,23.20
2014,05,15,13,37,23.30
2014,05,15,13,38,23.30
2014,05,15,13,39,23.40
2014,05,15,13,40,23.50
2014,05,15,13,41,23.60
2014,05,15,13,42,23.80
2014,05,15,13,43,23.90
2014,05,15,13,44,24.00
2014,05,15,13,45,24.00
2014,05,15,13,46,24.00
2014,05,15,13,47,23.90
2014,05,15,13,48,23.80
2014,05,15,13,49,23.80
2014,05,15,13,50,23.70
2014,05,15,13,51,23.70
2014,05,15,13,52,23.80
2014,05,15,13,53,23.90
2014,05,15,13,54,24.00
2014,05,15,13,55,24.00
2014,05,15,13,56,24.10
2014,05,15,13,57,24.10
2014,05,15,13,58,24.20
2014,05,15,13,59,24.20
2014,05,15,14,00,24.10
2014,05,15,14,01,24.20
2014,05,15,14,02,24.20
2014,05,15,14,03,24.20
2014,05,15,14,04,24.10
2014,05,15,14,05,24.10
2014,05,15,14,06,24.20
2014,05,15,14,07,24.20
2014,05,15,14,08,24.10
2014,05,15,14,09,24.10
2014,05,15,14,10,24.10
2014,05,15,14,11,24.10
2014,05,15,14,12,24.20
2014,05,15,14,13,24.10
2014,05,15,14,14,24.10
2014,05,15,14,15,24.10
2014,05,15,14,16,24.10
2014,05,15,14,17,24.00
2014,05,15,14,18,24.00
2014,05,15,14,19,23.90
2014,05,15,14,20,23.80
2014,05,15,14,21,23.70
2014,05,15,14,22,23.60
2014,05,15,14,23,23.60
2014,05,15,14,24,23.60
2014,05,15,14,25,23.70
2014,05,15,14,26,23.70
2014,05,15,14,27,23.70
2014,05,15,14,28,23.60
2014,05,15,14,29,23.60
2014,05,15,14,30,23.50
2014,05,15,14,31,23.40
2014,05,15,14,32,23.40
2014,05,15,14,33,23.30
2014,05,15,14,34,23.30
2014,05,15,14,35,23.30
2014,05,15,14,36,23.30
2014,05,15,14,37,23.20
2014,05,15,14,38,23.20
2014,05,15,14,39,23.20
2014,05,15,14,40,23.20
2014,05,15,14,41,23.20
2014,05,15,14,42,23.20
2014,05,15,14,43,23.30
2014,05,15,14,44,23.30
2014,05,15,14,45,23.30
2014,05,15,14,46,23.20
2014,05,15,14,47,23.20
2014,05,15,14,48,23.20
2014,05,15,14,49,23.30
2014,05,15,14,50,23.30
2014,05,15,14,51,23.40
2014,05,15,14,52,23.40
2014,05,15,14,53,23.30
2014,05,15,14,54,23.30
2014,05,15,14,55,23.30
2014,05,15,14,56,23.30
2014,05,15,14,57,23.20
2014,05,15,14,58,23.20
2014,05,15,14,59,23.20
2014,05,15,15,00,23.20
2014,05,15,15,01,23.20
2014,05,15,15,02,23.20
2014,05,15,15,03,23.20
2014,05,15,15,04,23.20
2014,05,15,15,05,23.10
2014,05,15,15,06,23.10
2014,05,15,15,07,23.10
2014,05,15,15,08,23.10
2014,05,15,15,09,23.10
2014,05,15,15,10,23.10
2014,05,15,15,11,23.10
2014,05,15,15,12,23.10
2014,05,15,15,13,23.20
2014,05,15,15,14,23.20
2014,05,15,15,15,23.20
2014,05,15,15,16,23.10
2014,05,15,15,17,23.10
2014,05,15,15,18,23.10
2014,05,15,15,19,23.10
2014,05,15,15,20,23.10
2014,05,15,15,21,23.10
2014,05,15,15,22,23.00
2014,05,15,15,23,23.00
2014,05,15,15,24,22.90
2014,05,15,15,25,23.00
2014,05,15,15,26,23.00
2014,05,15,15,27,22.90
2014,05,15,15,28,22.80
2014,05,15,15,29,22.70
2014,05,15,15,30,22.70
2014,05,15,15,31,22.70
2014,05,15,15,32,22.70
2014,05,15,15,33,22.70
2014,05,15,15,34,22.60
2014,05,15,15,35,22.50
2014,05,15,15,36,22.50
2014,05,15,15,37,22.60
2014,05,15,15,38,22.50
2014,05,15,15,39,22.40
2014,05,15,15,40,22.30
2014,05,15,15,41,22.20
2014,05,15,15,42,22.10
2014,05,15,15,43,22.00
2014,05,15,15,44,21.90
2014,05,15,15,45,21.90
2014,05,15,15,46,21.80
2014,05,15,15,47,21.80
2014,05,15,15,48,21.80
2014,05,15,15,49,21.80
2014,05,15,15,50,21.70
2014,05,15,15,51,21.70
2014,05,15,15,52,21.70
2014,05,15,15,53,21.70
2014,05,15,15,54,21.60
2014,05,15,15,55,21.60
2014,05,15,15,56,21.50
2014,05,15,15,57,21.40
2014,05,15,15,58,21.40
2014,05,15,15,59,21.30
2014,05,15,16,00,21.20
2014,05,15,16,01,21.20
2014,05,15,16,02,21.10
2014,05,15,16,03,21.10
2014,05,15,16,04,21.10
2014,05,15,16,05,21.10
2014,05,15,16,06,21.10
2014,05,15,16,07,21.10
2014,05,15,16,08,21.10
2014,05,15,16,09,21.20
2014,05,15,16,10,21.20
2014,05,15,16,11,21.20
2014,05,15,16,12,21.20
2014,05,15,16,13,21.20
2014,05,15,16,14,21.20
2014,05,15,16,15,21.30
2014,05,15,16,16,21.30
2014,05,15,16,17,21.30
2014,05,15,16,18,21.30
2014,05,15,16,19,21.30
2014,05,15,16,20,21.30
2014,05,15,16,21,21.30
2014,05,15,16,22,21.30
2014,05,15,16,23,21.30
2014,05,15,16,24,21.30
2014,05,15,16,25,21.30
2014,05,15,16,26,21.20
2014,05,15,16,27,21.30
2014,05,15,16,28,21.30
2014,05,15,16,29,21.20
2014,05,15,16,30,21.20
2014,05,15,16,31,21.20
2014,05,15,16,32,21.20
2014,05,15,16,33,21.20
2014,05,15,16,34,21.30
2014,05,15,16,35,21.20
2014,05,15,16,36,21.20
2014,05,15,16,37,21.20
2014,05,15,16,38,21.20
2014,05,15,16,39,21.20
2014,05,15,16,40,21.20
2014,05,15,16,41,21.20
2014,05,15,16,42,21.20
2014,05,15,16,43,21.20
2014,05,15,16,44,21.20
2014,05,15,16,45,21.20
2014,05,15,16,46,21.20
2014,05,15,16,47,21.10
2014,05,15,16,48,21.10
2014,05,15,16,49,21.10
2014,05,15,16,50,21.10
2014,05,15,16,51,21.10
2014,05,15,16,52,21.10
2014,05,15,16,53,21.10
2014,05,15,16,54,21.10
2014,05,15,16,55,21.20
2014,05,15,16,56,21.20
2014,05,15,16,57,21.20
2014,05,15,16,58,21.20
2014,05,15,16,59,21.30
2014,05,15,17,00,21.30
2014,05,15,17,01,21.30
2014,05,15,17,02,21.40
2014,05,15,17,03,21.50
2014,05,15,17,04,21.50
2014,05,15,17,05,21.60
2014,05,15,17,06,21.60
2014,05,15,17,07,21.70
2014,05,15,17,08,21.70
2014,05,15,17,09,21.70
2014,05,15,17,10,21.70
2014,05,15,17,11,21.80
2014,05,15,17,12,21.80
2014,05,15,17,13,21.80
2014,05,15,17,14,21.80
2014,05,15,17,15,21.80
2014,05,15,17,16,21.80
2014,05,15,17,17,21.80
2014,05,15,17,18,21.80
2014,05,15,17,19,21.80